Simultaneous Nadir Overpasses (SNOs) Predictions

Prediction of SNOs between AURA and NPP Satellite Orbit:

Table of predicted SNOs for the next 14.0 days since TLE Epoch: 10/17/2020
Index Date (AURA) Time (AURA) Lat,Lon (AURA) SZA (AURA ) Date (NPP) Time (NPP) Lat,Lon (NPP) SZA (NPP ) Distance(km) Time Diff (sec)
1 10/18/2020 11:25:05 79.52, -94.42 101.43 10/18/2020 11:24:41 79.53, -94.38 101.44 0.77 24
2 10/18/2020 12:14:25 -79.79, 75.15 78.93 10/18/2020 12:15:18 -79.79, 75.27 78.99 2.50 53
3 10/21/2020 02:53:52 -74.79,-165.61 72.30 10/21/2020 02:52:38 -75.07,-167.04 72.01 51.38 74
4 10/21/2020 03:41:31 79.62, 22.13 102.23 10/21/2020 03:41:32 79.62, 22.21 102.21 1.70 1
5 10/23/2020 19:08:39 -79.41, -31.05 76.61 10/23/2020 19:07:48 -79.41, -31.09 76.56 0.96 51
6 10/23/2020 19:57:57 79.71, 138.66 103.01 10/23/2020 19:58:23 79.72, 138.80 102.96 3.11 26
7 10/26/2020 11:25:03 -79.54, 85.70 75.89 10/26/2020 11:24:37 -79.54, 85.74 75.88 0.77 26
8 10/26/2020 12:14:24 79.72,-105.38 103.88 10/26/2020 12:15:16 79.71,-105.45 103.86 1.45 52
9 10/29/2020 03:41:29 -79.63,-157.82 75.13 10/29/2020 03:41:28 -79.64,-157.69 75.16 2.92 1
